Time,TemperatureF,DewpointF,PressureIn,WindDirection,WindDirectionDegrees,WindSpeedMPH,WindSpeedGustMPH,Humidity,HourlyPrecipIn,Conditions,Clouds,dailyrainin,SoftwareType,DateUTC
2013-03-07 00:02:00,31.0,21.0,-100.00,SE,125,1.0,2.0,66,0.00,,,-99.99,,2013-03-07 05:02:00,
2013-03-07 00:12:00,30.0,20.0,-100.00,North,5,3.0,6.0,66,0.00,,,-99.99,,2013-03-07 05:12:00,
2013-03-07 00:22:00,30.0,21.0,-100.00,North,10,2.0,6.0,68,0.00,,,-99.99,,2013-03-07 05:22:00,
2013-03-07 00:32:00,30.0,20.0,-100.00,North,5,4.0,7.0,65,0.00,,,-99.99,,2013-03-07 05:32:00,
2013-03-07 00:42:00,30.0,20.0,-100.00,WNW,285,1.0,4.0,66,0.00,,,-99.99,,2013-03-07 05:42:00,
2013-03-07 00:52:00,30.0,20.0,-100.00,NNW,340,2.0,5.0,66,0.00,,,-99.99,,2013-03-07 05:52:00,
2013-03-07 01:01:00,30.0,20.0,-100.00,NNE,15,3.0,4.0,66,0.00,,,-99.99,,2013-03-07 06:01:00,
2013-03-07 01:11:00,30.0,20.0,-100.00,North,-999,-999.0,-999.0,66,0.00,,,-99.99,,2013-03-07 06:11:00,
2013-03-07 01:21:00,30.0,20.0,-100.00,NNW,330,3.0,7.0,65,0.00,,,-99.99,,2013-03-07 06:21:00,
2013-03-07 01:32:00,30.0,20.0,-100.00,NNE,15,2.0,7.0,64,0.00,,,-99.99,,2013-03-07 06:32:00,
2013-03-07 01:42:00,30.0,20.0,-100.00,NW,325,4.0,6.0,65,0.00,,,-99.99,,2013-03-07 06:42:00,
2013-03-07 01:51:00,30.0,20.0,-100.00,SSW,200,1.0,4.0,67,0.00,,,-99.99,,2013-03-07 06:51:00,
2013-03-07 02:01:00,30.0,21.0,-100.00,ESE,115,2.0,4.0,68,0.00,,,-99.99,,2013-03-07 07:01:00,
2013-03-07 02:11:00,31.0,19.0,-100.00,NE,40,4.0,9.0,62,0.00,,,-99.99,,2013-03-07 07:11:00,
2013-03-07 02:21:00,30.0,20.0,-100.00,NNE,20,2.0,9.0,63,0.00,,,-99.99,,2013-03-07 07:21:00,
2013-03-07 02:32:00,30.0,21.0,-100.00,NNW,345,1.0,4.0,67,0.00,,,-99.99,,2013-03-07 07:32:00,
2013-03-07 02:42:00,30.0,20.0,-100.00,NNW,340,1.0,4.0,67,0.00,,,-99.99,,2013-03-07 07:42:00,
2013-03-07 02:52:00,30.0,20.0,-100.00,North,10,3.0,9.0,64,0.00,,,-99.99,,2013-03-07 07:52:00,
2013-03-07 03:03:00,30.0,19.0,-100.00,NNE,15,4.0,12.0,63,0.00,,,-99.99,,2013-03-07 08:03:00,
2013-03-07 03:12:00,30.0,19.0,-100.00,North,0,4.0,8.0,62,0.00,,,-99.99,,2013-03-07 08:12:00,
2013-03-07 03:23:00,30.0,19.0,-100.00,NNE,30,2.0,10.0,61,0.00,,,-99.99,,2013-03-07 08:23:00,
2013-03-07 03:33:00,30.0,19.0,-100.00,ESE,120,2.0,6.0,61,0.00,,,-99.99,,2013-03-07 08:33:00,
2013-03-07 03:44:00,30.0,18.0,-100.00,NW,320,4.0,9.0,60,0.00,,,-99.99,,2013-03-07 08:44:00,
2013-03-07 03:53:00,30.0,18.0,-100.00,North,5,7.0,16.0,60,0.00,,,-99.99,,2013-03-07 08:53:00,
2013-03-07 04:03:00,30.0,18.0,-100.00,NE,45,5.0,9.0,60,0.00,,,-99.99,,2013-03-07 09:03:00,
2013-03-07 04:13:00,30.0,18.0,-100.00,NW,315,7.0,12.0,60,0.00,,,-99.99,,2013-03-07 09:13:00,
2013-03-07 04:23:00,30.0,18.0,-100.00,WNW,285,1.0,12.0,60,0.00,,,-99.99,,2013-03-07 09:23:00,
2013-03-07 04:33:00,30.0,18.0,-100.00,NE,55,3.0,9.0,60,0.00,,,-99.99,,2013-03-07 09:33:00,
2013-03-07 04:42:00,30.0,18.0,-100.00,NW,315,4.0,9.0,60,0.00,,,-99.99,,2013-03-07 09:42:00,
2013-03-07 04:52:00,30.0,18.0,-100.00,North,-999,-999.0,-999.0,60,0.00,,,-99.99,,2013-03-07 09:52:00,
2013-03-07 05:03:00,30.0,18.0,-100.00,North,0,4.0,13.0,61,0.00,,,-99.99,,2013-03-07 10:03:00,
2013-03-07 05:13:00,30.0,18.0,-100.00,NNW,340,8.0,14.0,61,0.00,,,-99.99,,2013-03-07 10:13:00,
2013-03-07 05:23:00,30.0,18.0,-100.00,North,0,6.0,11.0,61,0.00,,,-99.99,,2013-03-07 10:23:00,
2013-03-07 05:33:00,30.0,18.0,-100.00,North,355,6.0,10.0,61,0.00,,,-99.99,,2013-03-07 10:33:00,
2013-03-07 05:42:00,30.0,19.0,-100.00,North,355,7.0,12.0,62,0.00,,,-99.99,,2013-03-07 10:42:00,
2013-03-07 05:52:00,29.0,19.0,-100.00,NNW,345,4.0,13.0,63,0.00,,,-99.99,,2013-03-07 10:52:00,
2013-03-07 06:03:00,29.0,19.0,-100.00,North,355,5.0,12.0,63,0.00,,,-99.99,,2013-03-07 11:03:00,
2013-03-07 06:12:00,29.0,19.0,-100.00,North,0,6.0,10.0,64,0.00,,,-99.99,,2013-03-07 11:12:00,
2013-03-07 06:23:00,29.0,19.0,-100.00,North,0,5.0,10.0,64,0.00,,,-99.99,,2013-03-07 11:23:00,
2013-03-07 06:33:00,29.0,19.0,-100.00,NNW,345,4.0,9.0,65,0.00,,,-99.99,,2013-03-07 11:33:00,
2013-03-07 06:43:00,29.0,19.0,-100.00,NW,325,4.0,7.0,64,0.00,,,-99.99,,2013-03-07 11:43:00,
2013-03-07 06:53:00,29.0,19.0,-100.00,North,0,4.0,11.0,64,0.00,,,-99.99,,2013-03-07 11:53:00,
2013-03-07 07:03:00,29.0,19.0,-100.00,NNW,330,7.0,12.0,64,0.00,,,-99.99,,2013-03-07 12:03:00,
2013-03-07 07:12:00,29.0,19.0,-100.00,North,350,6.0,12.0,64,0.00,,,-99.99,,2013-03-07 12:12:00,
2013-03-07 07:23:00,29.0,19.0,-100.00,NW,325,5.0,8.0,65,0.00,,,-99.99,,2013-03-07 12:23:00,
2013-03-07 07:42:00,29.0,19.0,-100.00,NNW,335,9.0,15.0,64,0.00,,,-99.99,,2013-03-07 12:42:00,
2013-03-07 07:52:00,29.0,19.0,-100.00,NNE,15,9.0,16.0,64,0.00,,,-99.99,,2013-03-07 12:52:00,
2013-03-07 08:02:00,29.0,19.0,-100.00,North,0,8.0,16.0,64,0.00,,,-99.99,,2013-03-07 13:02:00,
2013-03-07 08:12:00,29.0,19.0,-100.00,NNW,330,9.0,15.0,64,0.00,,,-99.99,,2013-03-07 13:12:00,
2013-03-07 08:22:00,29.0,19.0,-100.00,NNW,330,6.0,15.0,64,0.00,,,-99.99,,2013-03-07 13:22:00,
2013-03-07 08:32:00,30.0,19.0,-100.00,NNE,15,7.0,12.0,64,0.00,,,-99.99,,2013-03-07 13:32:00,
2013-03-07 08:42:00,30.0,19.0,-100.00,North,0,7.0,14.0,64,0.00,,,-99.99,,2013-03-07 13:42:00,
2013-03-07 08:53:00,30.0,20.0,-100.00,North,5,7.0,12.0,63,0.00,,,-99.99,,2013-03-07 13:53:00,
2013-03-07 09:02:00,31.0,20.0,-100.00,North,0,7.0,12.0,62,0.00,,,-99.99,,2013-03-07 14:02:00,
2013-03-07 09:12:00,31.0,19.0,-100.00,North,0,4.0,11.0,62,0.00,,,-99.99,,2013-03-07 14:12:00,
2013-03-07 09:23:00,32.0,20.0,-100.00,North,355,4.0,9.0,60,0.00,,,-99.99,,2013-03-07 14:23:00,
2013-03-07 09:33:00,32.0,20.0,-100.00,NNW,335,9.0,14.0,60,0.00,,,-99.99,,2013-03-07 14:33:00,
2013-03-07 09:42:00,32.0,20.0,-100.00,North,355,9.0,12.0,59,0.00,,,-99.99,,2013-03-07 14:42:00,
2013-03-07 09:53:00,33.0,20.0,-100.00,NE,45,4.0,14.0,58,0.00,,,-99.99,,2013-03-07 14:53:00,
2013-03-07 10:03:00,33.0,20.0,-100.00,North,355,6.0,12.0,57,0.00,,,-99.99,,2013-03-07 15:03:00,
2013-03-07 10:12:00,33.0,20.0,-100.00,NNW,340,9.0,19.0,57,0.00,,,-99.99,,2013-03-07 15:12:00,
2013-03-07 10:23:00,34.0,20.0,-100.00,North,355,4.0,19.0,56,0.00,,,-99.99,,2013-03-07 15:23:00,
2013-03-07 10:32:00,34.0,20.0,-100.00,North,355,7.0,12.0,57,0.00,,,-99.99,,2013-03-07 15:32:00,
2013-03-07 10:42:00,34.0,20.0,-100.00,ESE,110,7.0,14.0,57,0.00,,,-99.99,,2013-03-07 15:42:00,
2013-03-07 10:52:00,34.0,20.0,-100.00,NNE,30,6.0,17.0,56,0.00,,,-99.99,,2013-03-07 15:52:00,
2013-03-07 11:13:00,35.0,20.0,-100.00,NNW,340,7.0,14.0,55,0.00,,,-99.99,,2013-03-07 16:13:00,
2013-03-07 11:23:00,35.0,20.0,-100.00,East,100,6.0,12.0,54,0.00,,,-99.99,,2013-03-07 16:23:00,
2013-03-07 11:32:00,35.0,20.0,-100.00,NNE,30,5.0,11.0,55,0.00,,,-99.99,,2013-03-07 16:32:00,
2013-03-07 11:43:00,35.0,21.0,-100.00,NE,50,5.0,14.0,57,0.00,,,-99.99,,2013-03-07 16:43:00,
2013-03-07 11:52:00,35.0,21.0,-100.00,NNW,340,3.0,11.0,56,0.00,,,-99.99,,2013-03-07 16:52:00,
2013-03-07 12:02:00,35.0,21.0,-100.00,NE,45,4.0,12.0,57,0.00,,,-99.99,,2013-03-07 17:02:00,
2013-03-07 12:12:00,34.0,21.0,-100.00,North,5,8.0,16.0,58,0.00,,,-99.99,,2013-03-07 17:12:00,
2013-03-07 12:22:00,35.0,21.0,-100.00,North,355,6.0,14.0,57,0.00,,,-99.99,,2013-03-07 17:22:00,
2013-03-07 12:33:00,35.0,22.0,-100.00,North,10,6.0,11.0,58,0.00,,,-99.99,,2013-03-07 17:33:00,
2013-03-07 12:43:00,35.0,22.0,-100.00,NNW,335,4.0,13.0,58,0.00,,,-99.99,,2013-03-07 17:43:00,
2013-03-07 13:03:00,36.0,22.0,-100.00,NNW,345,5.0,14.0,55,0.00,,,-99.99,,2013-03-07 18:03:00,
2013-03-07 13:12:00,35.0,21.0,-100.00,NE,50,6.0,14.0,56,0.00,,,-99.99,,2013-03-07 18:12:00,
2013-03-07 13:22:00,35.0,21.0,-100.00,North,5,6.0,11.0,56,0.00,,,-99.99,,2013-03-07 18:22:00,
2013-03-07 13:32:00,36.0,22.0,-100.00,North,-999,-999.0,-999.0,55,0.00,,,-99.99,,2013-03-07 18:32:00,
2013-03-07 13:42:00,36.0,22.0,-100.00,North,5,5.0,10.0,55,0.00,,,-99.99,,2013-03-07 18:42:00,
2013-03-07 13:52:00,36.0,22.0,-100.00,NW,325,7.0,11.0,56,0.00,,,-99.99,,2013-03-07 18:52:00,
2013-03-07 14:03:00,37.0,22.0,-100.00,NNW,330,2.0,7.0,55,0.00,,,-99.99,,2013-03-07 19:03:00,
2013-03-07 14:12:00,37.0,22.0,-100.00,NW,310,7.0,12.0,54,0.00,,,-99.99,,2013-03-07 19:12:00,
2013-03-07 14:23:00,37.0,22.0,-100.00,North,0,7.0,12.0,54,0.00,,,-99.99,,2013-03-07 19:23:00,
2013-03-07 14:35:00,37.0,22.0,-100.00,NW,325,6.0,10.0,53,0.00,,,-99.99,,2013-03-07 19:35:00,
2013-03-07 14:43:00,37.0,22.0,-100.00,NW,325,7.0,11.0,54,0.00,,,-99.99,,2013-03-07 19:43:00,
2013-03-07 14:52:00,37.0,22.0,-100.00,North,355,6.0,7.0,54,0.00,,,-99.99,,2013-03-07 19:52:00,
2013-03-07 15:02:00,37.0,22.0,-100.00,NNW,340,6.0,9.0,54,0.00,,,-99.99,,2013-03-07 20:02:00,
2013-03-07 15:13:00,37.0,22.0,-100.00,NNW,335,5.0,7.0,54,0.00,,,-99.99,,2013-03-07 20:13:00,
2013-03-07 15:22:00,37.0,22.0,-100.00,NNW,330,4.0,8.0,54,0.00,,,-99.99,,2013-03-07 20:22:00,
2013-03-07 15:33:00,37.0,22.0,-100.00,NNW,330,4.0,9.0,55,0.00,,,-99.99,,2013-03-07 20:33:00,
2013-03-07 15:43:00,37.0,22.0,-100.00,North,0,4.0,8.0,54,0.00,,,-99.99,,2013-03-07 20:43:00,
2013-03-07 15:53:00,38.0,23.0,-100.00,NW,325,1.0,8.0,55,0.00,,,-99.99,,2013-03-07 20:53:00,
2013-03-07 16:03:00,38.0,23.0,-100.00,NNW,345,2.0,5.0,55,0.00,,,-99.99,,2013-03-07 21:03:00,
2013-03-07 16:12:00,37.0,24.0,-100.00,NNW,330,4.0,11.0,58,0.00,,,-99.99,,2013-03-07 21:12:00,
2013-03-07 16:22:00,37.0,24.0,-100.00,NNW,340,4.0,8.0,57,0.00,,,-99.99,,2013-03-07 21:22:00,
2013-03-07 16:33:00,37.0,23.0,-100.00,NNW,340,6.0,10.0,57,0.00,,,-99.99,,2013-03-07 21:33:00,
2013-03-07 16:42:00,36.0,23.0,-100.00,NW,325,7.0,12.0,58,0.00,,,-99.99,,2013-03-07 21:42:00,
2013-03-07 16:52:00,36.0,23.0,-100.00,North,0,6.0,10.0,58,0.00,,,-99.99,,2013-03-07 21:52:00,
2013-03-07 17:02:00,36.0,23.0,-100.00,WNW,300,3.0,9.0,59,0.00,,,-99.99,,2013-03-07 22:02:00,
2013-03-07 17:12:00,35.0,23.0,-100.00,WNW,290,2.0,6.0,59,0.00,,,-99.99,,2013-03-07 22:12:00,
2013-03-07 17:32:00,35.0,23.0,-100.00,NW,310,3.0,6.0,60,0.00,,,-99.99,,2013-03-07 22:32:00,
2013-03-07 17:42:00,35.0,23.0,-100.00,NW,310,3.0,6.0,60,0.00,,,-99.99,,2013-03-07 22:42:00,
2013-03-07 17:53:00,35.0,22.0,-100.00,NW,310,5.0,10.0,60,0.00,,,-99.99,,2013-03-07 22:53:00,
2013-03-07 18:03:00,35.0,22.0,-100.00,NNW,340,5.0,11.0,60,0.00,,,-99.99,,2013-03-07 23:03:00,
2013-03-07 18:13:00,34.0,22.0,-100.00,NNW,340,6.0,12.0,60,0.00,,,-99.99,,2013-03-07 23:13:00,
2013-03-07 18:22:00,34.0,22.0,-100.00,NNW,330,5.0,9.0,60,0.00,,,-99.99,,2013-03-07 23:22:00,
2013-03-07 18:34:00,34.0,22.0,-100.00,North,-999,-999.0,-999.0,60,0.00,,,-99.99,,2013-03-07 23:34:00,
2013-03-07 18:43:00,34.0,22.0,-100.00,NNE,15,4.0,6.0,60,0.00,,,-99.99,,2013-03-07 23:43:00,
2013-03-07 18:53:00,34.0,22.0,-100.00,North,-999,-999.0,-999.0,61,0.00,,,-99.99,,2013-03-07 23:53:00,
2013-03-07 19:04:00,34.0,22.0,-100.00,NNW,345,4.0,7.0,60,0.00,,,-99.99,,2013-03-08 00:04:00,
2013-03-07 19:13:00,34.0,22.0,-100.00,North,-999,-999.0,-999.0,60,0.00,,,-99.99,,2013-03-08 00:13:00,
2013-03-07 19:23:00,34.0,22.0,-100.00,North,5,4.0,11.0,61,0.00,,,-99.99,,2013-03-08 00:23:00,
2013-03-07 19:34:00,34.0,22.0,-100.00,WNW,290,3.0,7.0,61,0.00,,,-99.99,,2013-03-08 00:34:00,
2013-03-07 19:52:00,33.0,22.0,-100.00,NNW,340,3.0,7.0,61,0.00,,,-99.99,,2013-03-08 00:52:00,
2013-03-07 20:02:00,33.0,22.0,-100.00,NW,310,3.0,8.0,62,0.00,,,-99.99,,2013-03-08 01:02:00,
2013-03-07 20:11:00,33.0,22.0,-100.00,NNW,335,5.0,11.0,61,0.00,,,-99.99,,2013-03-08 01:11:00,
2013-03-07 20:21:00,33.0,22.0,-100.00,NNW,340,6.0,10.0,62,0.00,,,-99.99,,2013-03-08 01:21:00,
2013-03-07 20:33:00,33.0,22.0,-100.00,NNW,330,4.0,9.0,62,0.00,,,-99.99,,2013-03-08 01:33:00,
2013-03-07 20:42:00,33.0,22.0,-100.00,NNW,340,4.0,11.0,62,0.00,,,-99.99,,2013-03-08 01:42:00,
2013-03-07 20:52:00,33.0,22.0,-100.00,WNW,295,4.0,9.0,63,0.00,,,-99.99,,2013-03-08 01:52:00,
2013-03-07 21:02:00,33.0,22.0,-100.00,NNW,330,6.0,10.0,63,0.00,,,-99.99,,2013-03-08 02:02:00,
2013-03-07 21:12:00,33.0,22.0,-100.00,NW,315,4.0,11.0,63,0.00,,,-99.99,,2013-03-08 02:12:00,
2013-03-07 21:22:00,33.0,22.0,-100.00,West,275,2.0,7.0,64,0.00,,,-99.99,,2013-03-08 02:22:00,
2013-03-07 21:32:00,33.0,22.0,-100.00,NNW,345,4.0,9.0,64,0.00,,,-99.99,,2013-03-08 02:32:00,
2013-03-07 21:42:00,33.0,22.0,-100.00,NNW,345,5.0,10.0,64,0.00,,,-99.99,,2013-03-08 02:42:00,
2013-03-07 21:52:00,33.0,22.0,-100.00,NNW,335,4.0,10.0,64,0.00,,,-99.99,,2013-03-08 02:52:00,
2013-03-07 22:02:00,33.0,22.0,-100.00,NW,315,2.0,12.0,64,0.00,,,-99.99,,2013-03-08 03:02:00,
2013-03-07 22:12:00,33.0,22.0,-100.00,NW,325,5.0,8.0,63,0.00,,,-99.99,,2013-03-08 03:12:00,
2013-03-07 22:22:00,33.0,22.0,-100.00,NNW,345,6.0,11.0,64,0.00,,,-99.99,,2013-03-08 03:22:00,
2013-03-07 22:32:00,33.0,22.0,-100.00,NW,325,2.0,7.0,64,0.00,,,-99.99,,2013-03-08 03:32:00,
2013-03-07 22:42:00,33.0,22.0,-100.00,WNW,290,2.0,7.0,64,0.00,,,-99.99,,2013-03-08 03:42:00,
2013-03-07 22:52:00,32.0,22.0,-100.00,WNW,300,1.0,5.0,64,0.00,,,-99.99,,2013-03-08 03:52:00,
2013-03-07 23:02:00,32.0,21.0,-100.00,NW,310,3.0,7.0,63,0.00,,,-99.99,,2013-03-08 04:02:00,
2013-03-07 23:11:00,32.0,21.0,-100.00,North,0,3.0,7.0,63,0.00,,,-99.99,,2013-03-08 04:11:00,
2013-03-07 23:22:00,32.0,21.0,-100.00,North,355,2.0,4.0,63,0.00,,,-99.99,,2013-03-08 04:22:00,
2013-03-07 23:32:00,32.0,21.0,-100.00,North,355,2.0,6.0,63,0.00,,,-99.99,,2013-03-08 04:32:00,
2013-03-07 23:42:00,32.0,22.0,-100.00,NNW,340,2.0,6.0,65,0.00,,,-99.99,,2013-03-08 04:42:00,
2013-03-07 23:52:00,32.0,22.0,-100.00,WSW,250,0.0,4.0,66,0.00,,,-99.99,,2013-03-08 04:52:00,